PRIVATE WETTERSTATION BILLIGHEIM-ALLFELD                       ZURCK
Wetterdaten: Sonntag, 23.07.2017
Datum Zeit Temp. A. Temp. A. min Temp. A. max Feuchte A. Luftdruck Regen Wind Richtung Richtung Sonnenschein ET Solar Taupunkt Windchill Windben Empfang
23.07.2017 00:00 19,2 C 19,2 C 19,2 C 88 % 1011,1 hPa 0,0 l/m 0,0 km/h (0 Bft) N 0 0 min 0,000 mm 0 W/m 17,2 C 19,2 C 0,0 km/h (0 Bft) 96 %
23.07.2017 00:10 19,3 C 19,2 C 19,4 C 87 % 1011,2 hPa 0,0 l/m 0,0 km/h (0 Bft) N 0 0 min 0,000 mm 0 W/m 17,1 C 19,3 C 0,0 km/h (0 Bft) 96 %
23.07.2017 00:20 19,3 C 19,3 C 19,4 C 88 % 1011,3 hPa 0,0 l/m 0,0 km/h (0 Bft) S 180 0 min 0,000 mm 0 W/m 17,3 C 19,3 C 4,8 km/h (1 Bft) 98 %
23.07.2017 00:30 19,3 C 19,2 C 19,3 C 87 % 1011,4 hPa 0,0 l/m 1,6 km/h (1 Bft) S-SO 157 0 min 0,000 mm 0 W/m 17,1 C 19,3 C 8,0 km/h (2 Bft) 97 %
23.07.2017 00:40 19,6 C 19,3 C 19,6 C 86 % 1011,5 hPa 0,0 l/m 3,2 km/h (1 Bft) S-SO 157 0 min 0,000 mm 0 W/m 17,2 C 19,6 C 9,7 km/h (2 Bft) 98 %
23.07.2017 00:50 19,9 C 19,6 C 19,9 C 86 % 1011,5 hPa 0,0 l/m 1,6 km/h (1 Bft) S-SO 157 0 min 0,000 mm 0 W/m 17,5 C 19,9 C 6,4 km/h (2 Bft) 97 %
23.07.2017 01:00 20,1 C 19,9 C 20,1 C 85 % 1011,5 hPa 0,0 l/m 3,2 km/h (1 Bft) S-SO 157 0 min 0,025 mm 0 W/m 17,5 C 20,1 C 9,7 km/h (2 Bft) 98 %
23.07.2017 01:10 20,2 C 20,1 C 20,2 C 84 % 1011,6 hPa 0,0 l/m 1,6 km/h (1 Bft) S-SO 157 0 min 0,000 mm 0 W/m 17,4 C 20,2 C 9,7 km/h (2 Bft) 98 %
23.07.2017 01:20 20,2 C 20,2 C 20,2 C 84 % 1011,7 hPa 0,0 l/m 4,8 km/h (1 Bft) S-SO 157 0 min 0,000 mm 0 W/m 17,4 C 20,2 C 11,3 km/h (2 Bft) 97 %
23.07.2017 01:30 20,2 C 20,2 C 20,2 C 82 % 1011,6 hPa 0,0 l/m 3,2 km/h (1 Bft) S-SO 157 0 min 0,000 mm 0 W/m 17,0 C 20,2 C 11,3 km/h (2 Bft) 98 %
23.07.2017 01:40 20,2 C 20,2 C 20,2 C 82 % 1011,8 hPa 0,0 l/m 3,2 km/h (1 Bft) S-SO 157 0 min 0,000 mm 0 W/m 17,0 C 20,2 C 16,1 km/h (3 Bft) 97 %
23.07.2017 01:50 20,0 C 20,0 C 20,2 C 83 % 1012,0 hPa 0,0 l/m 0,0 km/h (0 Bft) S 180 0 min 0,000 mm 0 W/m 17,0 C 20,0 C 1,6 km/h (1 Bft) 98 %
23.07.2017 02:00 19,9 C 19,8 C 20,0 C 82 % 1012,2 hPa 0,0 l/m 4,8 km/h (1 Bft) S-SW 202 0 min 0,025 mm 0 W/m 16,7 C 19,9 C 16,1 km/h (3 Bft) 97 %
23.07.2017 02:10 20,0 C 19,8 C 20,0 C 78 % 1012,3 hPa 0,0 l/m 8,0 km/h (2 Bft) S-SW 202 0 min 0,000 mm 0 W/m 16,0 C 19,4 C 22,5 km/h (4 Bft) 97 %
23.07.2017 02:20 20,2 C 20,0 C 20,2 C 77 % 1012,3 hPa 0,0 l/m 6,4 km/h (2 Bft) S-SW 202 0 min 0,000 mm 0 W/m 16,0 C 20,2 C 16,1 km/h (3 Bft) 98 %
23.07.2017 02:30 20,3 C 20,2 C 20,3 C 75 % 1012,2 hPa 0,0 l/m 6,4 km/h (2 Bft) SW 225 0 min 0,000 mm 0 W/m 15,7 C 20,3 C 16,1 km/h (3 Bft) 97 %
23.07.2017 02:40 20,3 C 20,3 C 20,3 C 75 % 1012,2 hPa 0,0 l/m 4,8 km/h (1 Bft) SW 225 0 min 0,000 mm 0 W/m 15,7 C 20,3 C 16,1 km/h (3 Bft) 98 %
23.07.2017 02:50 20,3 C 20,3 C 20,3 C 75 % 1012,2 hPa 0,0 l/m 3,2 km/h (1 Bft) SW 225 0 min 0,000 mm 0 W/m 15,7 C 20,3 C 20,9 km/h (4 Bft) 97 %
23.07.2017 03:00 20,2 C 20,2 C 20,3 C 76 % 1012,3 hPa 0,0 l/m 6,4 km/h (2 Bft) SW 225 0 min 0,025 mm 0 W/m 15,8 C 20,2 C 19,3 km/h (3 Bft) 98 %
23.07.2017 03:10 20,1 C 20,1 C 20,2 C 77 % 1012,4 hPa 0,0 l/m 6,4 km/h (2 Bft) S-SW 202 0 min 0,000 mm 0 W/m 15,9 C 20,1 C 20,9 km/h (4 Bft) 98 %
23.07.2017 03:20 20,0 C 20,0 C 20,1 C 77 % 1012,4 hPa 0,0 l/m 4,8 km/h (1 Bft) S-SW 202 0 min 0,000 mm 0 W/m 15,8 C 20,0 C 14,5 km/h (3 Bft) 97 %
23.07.2017 03:30 19,8 C 19,8 C 20,0 C 78 % 1012,5 hPa 0,0 l/m 1,6 km/h (1 Bft) S-SW 202 0 min 0,000 mm 0 W/m 15,8 C 19,8 C 11,3 km/h (2 Bft) 98 %
23.07.2017 03:40 19,7 C 19,7 C 19,8 C 79 % 1012,7 hPa 0,0 l/m 6,4 km/h (2 Bft) S-SW 202 0 min 0,000 mm 0 W/m 16,0 C 19,7 C 19,3 km/h (3 Bft) 97 %
23.07.2017 03:50 19,6 C 19,6 C 19,7 C 79 % 1012,7 hPa 0,0 l/m 4,8 km/h (1 Bft) S-SW 202 0 min 0,000 mm 0 W/m 15,9 C 19,6 C 20,9 km/h (4 Bft) 98 %
23.07.2017 04:00 19,4 C 19,4 C 19,6 C 79 % 1012,9 hPa 0,0 l/m 6,4 km/h (2 Bft) S-SW 202 0 min 0,025 mm 0 W/m 15,7 C 19,4 C 17,7 km/h (3 Bft) 97 %
23.07.2017 04:10 19,3 C 19,3 C 19,4 C 80 % 1012,8 hPa 0,0 l/m 4,8 km/h (1 Bft) S-SW 202 0 min 0,000 mm 0 W/m 15,8 C 19,3 C 16,1 km/h (3 Bft) 98 %
23.07.2017 04:20 19,2 C 19,2 C 19,3 C 81 % 1012,8 hPa 0,0 l/m 3,2 km/h (1 Bft) S-SW 202 0 min 0,000 mm 0 W/m 15,9 C 19,2 C 16,1 km/h (3 Bft) 97 %
23.07.2017 04:30 19,1 C 19,1 C 19,2 C 80 % 1012,8 hPa 0,0 l/m 3,2 km/h (1 Bft) S-SW 202 0 min 0,000 mm 0 W/m 15,6 C 19,1 C 11,3 km/h (2 Bft) 97 %
23.07.2017 04:40 19,0 C 19,0 C 19,1 C 81 % 1012,8 hPa 0,0 l/m 3,2 km/h (1 Bft) SW 225 0 min 0,000 mm 0 W/m 15,7 C 19,0 C 14,5 km/h (3 Bft) 98 %
23.07.2017 04:50 18,9 C 18,9 C 19,0 C 81 % 1012,9 hPa 0,0 l/m 0,0 km/h (0 Bft) S-SW 202 0 min 0,000 mm 0 W/m 15,6 C 18,9 C 4,8 km/h (1 Bft) 96 %
23.07.2017 05:00 18,8 C 18,8 C 18,9 C 83 % 1013,1 hPa 0,0 l/m 3,2 km/h (1 Bft) SW 225 0 min 0,025 mm 0 W/m 15,8 C 18,8 C 17,7 km/h (3 Bft) 98 %
23.07.2017 05:10 18,7 C 18,7 C 18,8 C 82 % 1013,1 hPa 0,0 l/m 8,0 km/h (2 Bft) SW 225 0 min 0,000 mm 0 W/m 15,6 C 18,0 C 27,4 km/h (4 Bft) 97 %
23.07.2017 05:20 18,6 C 18,6 C 18,7 C 82 % 1013,1 hPa 0,0 l/m 8,0 km/h (2 Bft) SW 225 0 min 0,000 mm 0 W/m 15,5 C 17,9 C 24,1 km/h (4 Bft) 98 %
23.07.2017 05:30 18,6 C 18,6 C 18,6 C 80 % 1013,2 hPa 0,0 l/m 9,7 km/h (2 Bft) W-SW 247 0 min 0,000 mm 0 W/m 15,1 C 17,2 C 25,7 km/h (4 Bft) 98 %
23.07.2017 05:40 18,6 C 18,6 C 18,6 C 80 % 1013,0 hPa 0,0 l/m 8,0 km/h (2 Bft) W-SW 247 0 min 0,000 mm 0 W/m 15,1 C 17,9 C 20,9 km/h (4 Bft) 96 %
23.07.2017 05:50 18,4 C 18,4 C 18,6 C 80 % 1013,4 hPa 0,0 l/m 3,2 km/h (1 Bft) W-SW 247 0 min 0,000 mm 0 W/m 14,9 C 18,4 C 19,3 km/h (3 Bft) 98 %
23.07.2017 06:00 18,3 C 18,3 C 18,4 C 80 % 1013,7 hPa 0,0 l/m 6,4 km/h (2 Bft) W-SW 247 0 min 0,025 mm 0 W/m 14,8 C 18,3 C 20,9 km/h (4 Bft) 97 %
23.07.2017 06:10 18,3 C 18,3 C 18,3 C 80 % 1013,8 hPa 0,0 l/m 8,0 km/h (2 Bft) W 270 0 min 0,000 mm 0 W/m 14,8 C 17,6 C 24,1 km/h (4 Bft) 98 %
23.07.2017 06:20 18,1 C 18,1 C 18,3 C 81 % 1013,6 hPa 0,0 l/m 4,8 km/h (1 Bft) W 270 0 min 0,000 mm 0 W/m 14,8 C 18,1 C 19,3 km/h (3 Bft) 97 %
23.07.2017 06:30 18,0 C 18,0 C 18,1 C 82 % 1013,8 hPa 0,0 l/m 3,2 km/h (1 Bft) W-SW 247 0 min 0,000 mm 0 W/m 14,9 C 18,0 C 17,7 km/h (3 Bft) 97 %
23.07.2017 06:40 17,8 C 17,8 C 18,0 C 82 % 1014,1 hPa 0,0 l/m 3,2 km/h (1 Bft) SW 225 0 min 0,000 mm 0 W/m 14,7 C 17,8 C 20,9 km/h (4 Bft) 98 %
23.07.2017 06:50 17,7 C 17,7 C 17,8 C 83 % 1014,2 hPa 0,0 l/m 3,2 km/h (1 Bft) W-SW 247 0 min 0,000 mm 28 W/m 14,8 C 17,7 C 14,5 km/h (3 Bft) 96 %
23.07.2017 07:00 17,6 C 17,6 C 17,7 C 83 % 1014,2 hPa 0,0 l/m 6,4 km/h (2 Bft) SW 225 0 min 0,025 mm 33 W/m 14,7 C 17,6 C 16,1 km/h (3 Bft) 98 %
23.07.2017 07:10 17,4 C 17,4 C 17,6 C 84 % 1014,4 hPa 0,0 l/m 4,8 km/h (1 Bft) SW 225 0 min 0,000 mm 25 W/m 14,7 C 17,4 C 17,7 km/h (3 Bft) 97 %
23.07.2017 07:20 17,4 C 17,4 C 17,4 C 84 % 1014,3 hPa 0,0 l/m 1,6 km/h (1 Bft) W-SW 247 0 min 0,000 mm 60 W/m 14,7 C 17,4 C 8,0 km/h (2 Bft) 98 %
23.07.2017 07:30 17,3 C 17,3 C 17,4 C 84 % 1014,2 hPa 0,0 l/m 3,2 km/h (1 Bft) S-SW 202 0 min 0,000 mm 51 W/m 14,6 C 17,3 C 17,7 km/h (3 Bft) 97 %
23.07.2017 07:40 17,3 C 17,3 C 17,3 C 85 % 1014,5 hPa 0,0 l/m 3,2 km/h (1 Bft) SW 225 0 min 0,000 mm 63 W/m 14,8 C 17,3 C 16,1 km/h (3 Bft) 98 %
23.07.2017 07:50 17,4 C 17,3 C 17,4 C 85 % 1014,5 hPa 0,0 l/m 8,0 km/h (2 Bft) SW 225 0 min 0,000 mm 107 W/m 14,8 C 16,6 C 22,5 km/h (4 Bft) 96 %
23.07.2017 08:00 17,6 C 17,4 C 17,6 C 84 % 1014,5 hPa 0,0 l/m 6,4 km/h (2 Bft) W-SW 247 0 min 0,051 mm 93 W/m 14,9 C 17,6 C 20,9 km/h (4 Bft) 96 %
23.07.2017 08:10 17,8 C 17,6 C 17,8 C 84 % 1014,5 hPa 0,0 l/m 8,0 km/h (2 Bft) SW 225 10 min 0,000 mm 169 W/m 15,1 C 17,0 C 25,7 km/h (4 Bft) 98 %
23.07.2017 08:20 18,1 C 17,8 C 18,1 C 84 % 1014,3 hPa 0,0 l/m 6,4 km/h (2 Bft) SW 225 10 min 0,000 mm 178 W/m 15,4 C 18,1 C 20,9 km/h (4 Bft) 96 %
23.07.2017 08:30 18,5 C 18,1 C 18,5 C 80 % 1014,4 hPa 0,0 l/m 9,7 km/h (2 Bft) W-SW 247 10 min 0,000 mm 383 W/m 15,0 C 17,1 C 25,7 km/h (4 Bft) 98 %
23.07.2017 08:40 19,0 C 18,5 C 19,0 C 76 % 1014,5 hPa 0,0 l/m 11,3 km/h (2 Bft) W-SW 247 10 min 0,000 mm 450 W/m 14,7 C 17,1 C 29,0 km/h (5 Bft) 97 %
23.07.2017 08:50 19,2 C 19,0 C 19,2 C 74 % 1014,5 hPa 0,0 l/m 11,3 km/h (2 Bft) SW 225 10 min 0,000 mm 380 W/m 14,4 C 17,3 C 22,5 km/h (4 Bft) 98 %
23.07.2017 09:00 19,6 C 19,2 C 19,6 C 73 % 1014,7 hPa 0,0 l/m 11,3 km/h (2 Bft) W 270 10 min 0,178 mm 464 W/m 14,6 C 17,8 C 24,1 km/h (4 Bft) 98 %
23.07.2017 09:10 19,8 C 19,6 C 19,8 C 69 % 1014,7 hPa 0,0 l/m 14,5 km/h (3 Bft) SW 225 10 min 0,000 mm 464 W/m 13,9 C 17,1 C 29,0 km/h (5 Bft) 97 %
23.07.2017 09:20 19,9 C 19,8 C 19,9 C 69 % 1014,7 hPa 0,0 l/m 11,3 km/h (2 Bft) SW 225 10 min 0,000 mm 452 W/m 14,0 C 18,1 C 25,7 km/h (4 Bft) 98 %
23.07.2017 09:30 19,8 C 19,8 C 19,9 C 67 % 1014,8 hPa 0,0 l/m 16,1 km/h (3 Bft) S-SW 202 10 min 0,000 mm 415 W/m 13,5 C 16,7 C 33,8 km/h (5 Bft) 97 %
23.07.2017 09:40 19,8 C 19,7 C 19,8 C 70 % 1014,8 hPa 0,0 l/m 9,7 km/h (2 Bft) W-SW 247 10 min 0,000 mm 388 W/m 14,2 C 18,5 C 22,5 km/h (4 Bft) 98 %
23.07.2017 09:50 19,9 C 19,8 C 19,9 C 67 % 1014,9 hPa 0,0 l/m 9,7 km/h (2 Bft) SW 225 10 min 0,000 mm 427 W/m 13,6 C 18,6 C 27,4 km/h (4 Bft) 97 %
23.07.2017 10:00 19,9 C 19,8 C 19,9 C 67 % 1015,0 hPa 0,0 l/m 12,9 km/h (3 Bft) W-SW 247 10 min 0,279 mm 469 W/m 13,6 C 17,7 C 30,6 km/h (5 Bft) 97 %
23.07.2017 10:10 19,8 C 19,8 C 19,9 C 68 % 1015,1 hPa 0,0 l/m 11,3 km/h (2 Bft) W-SW 247 10 min 0,000 mm 466 W/m 13,7 C 18,0 C 29,0 km/h (5 Bft) 98 %
23.07.2017 10:20 19,9 C 19,8 C 19,9 C 68 % 1015,0 hPa 0,0 l/m 8,0 km/h (2 Bft) W-SW 247 10 min 0,000 mm 677 W/m 13,8 C 19,2 C 22,5 km/h (4 Bft) 97 %
23.07.2017 10:30 20,0 C 19,8 C 20,0 C 68 % 1015,0 hPa 0,0 l/m 9,7 km/h (2 Bft) W 270 10 min 0,000 mm 617 W/m 13,9 C 18,7 C 22,5 km/h (4 Bft) 98 %
23.07.2017 10:40 20,4 C 20,0 C 20,4 C 66 % 1015,0 hPa 0,0 l/m 8,0 km/h (2 Bft) W-SW 247 10 min 0,000 mm 693 W/m 13,8 C 19,8 C 22,5 km/h (4 Bft) 97 %
23.07.2017 10:50 21,0 C 20,4 C 21,0 C 64 % 1015,1 hPa 0,0 l/m 8,0 km/h (2 Bft) W-SW 247 10 min 0,000 mm 770 W/m 13,9 C 20,4 C 24,1 km/h (4 Bft) 97 %
23.07.2017 11:00 21,2 C 21,0 C 21,2 C 63 % 1015,1 hPa 0,0 l/m 9,7 km/h (2 Bft) S-SW 202 10 min 0,356 mm 612 W/m 13,9 C 20,1 C 29,0 km/h (5 Bft) 97 %
23.07.2017 11:10 20,9 C 20,9 C 21,2 C 65 % 1015,0 hPa 0,0 l/m 8,0 km/h (2 Bft) SW 225 10 min 0,000 mm 647 W/m 14,1 C 20,3 C 27,4 km/h (4 Bft) 97 %
23.07.2017 11:20 20,9 C 20,9 C 21,1 C 63 % 1015,1 hPa 0,0 l/m 9,7 km/h (2 Bft) W-SW 247 10 min 0,000 mm 526 W/m 13,6 C 19,7 C 19,3 km/h (3 Bft) 98 %
23.07.2017 11:30 20,2 C 20,2 C 20,9 C 65 % 1015,1 hPa 0,0 l/m 9,7 km/h (2 Bft) W-SW 247 10 min 0,000 mm 213 W/m 13,4 C 19,0 C 24,1 km/h (4 Bft) 97 %
23.07.2017 11:40 20,4 C 20,2 C 20,4 C 64 % 1015,2 hPa 0,0 l/m 14,5 km/h (3 Bft) SW 225 10 min 0,000 mm 902 W/m 13,4 C 17,9 C 27,4 km/h (4 Bft) 98 %
23.07.2017 11:50 21,1 C 20,4 C 21,1 C 63 % 1015,2 hPa 0,0 l/m 16,1 km/h (3 Bft) SW 225 10 min 0,000 mm 1011 W/m 13,8 C 18,4 C 40,2 km/h (6 Bft) 97 %
23.07.2017 12:00 20,4 C 20,4 C 21,1 C 63 % 1015,3 hPa 0,0 l/m 14,5 km/h (3 Bft) S-SW 202 10 min 0,356 mm 360 W/m 13,1 C 17,9 C 30,6 km/h (5 Bft) 98 %
23.07.2017 12:10 20,7 C 20,4 C 20,7 C 60 % 1015,3 hPa 0,0 l/m 12,9 km/h (3 Bft) SW 225 10 min 0,000 mm 1078 W/m 12,7 C 18,6 C 33,8 km/h (5 Bft) 97 %
23.07.2017 12:20 21,3 C 20,7 C 21,3 C 61 % 1015,2 hPa 0,0 l/m 14,5 km/h (3 Bft) S-SW 202 10 min 0,000 mm 1034 W/m 13,5 C 18,9 C 25,7 km/h (4 Bft) 96 %
23.07.2017 12:30 21,8 C 21,3 C 21,8 C 56 % 1015,2 hPa 0,0 l/m 17,7 km/h (3 Bft) S-SW 202 10 min 0,000 mm 1093 W/m 12,6 C 18,9 C 41,8 km/h (6 Bft) 98 %
23.07.2017 12:40 21,8 C 21,8 C 21,9 C 58 % 1015,3 hPa 0,0 l/m 14,5 km/h (3 Bft) S-SW 202 10 min 0,000 mm 1067 W/m 13,2 C 19,5 C 33,8 km/h (5 Bft) 97 %
23.07.2017 12:50 21,2 C 21,2 C 21,9 C 58 % 1015,3 hPa 0,0 l/m 7,6 km/h (2 Bft) NW 313 10 min 0,002 mm 232 W/m 12,6 C 20,8 C 22,5 km/h (4 Bft) 99 %
23.07.2017 13:00 21,2 C 21,0 C 21,2 C 59 % 1015,4 hPa 0,0 l/m 10,9 km/h (2 Bft) S-SW 205 10 min 0,000 mm 967 W/m 12,9 C 19,7 C 29,0 km/h (5 Bft) 100 %
23.07.2017 13:10 20,8 C 20,8 C 21,2 C 58 % 1015,4 hPa 0,0 l/m 13,9 km/h (3 Bft) W-SW 250 10 min 0,508 mm 287 W/m 12,2 C 18,5 C 30,6 km/h (5 Bft) 100 %
23.07.2017 13:20 20,6 C 20,5 C 20,8 C 59 % 1015,4 hPa 0,0 l/m 12,6 km/h (3 Bft) W 259 10 min 0,000 mm 550 W/m 12,3 C 18,6 C 25,7 km/h (4 Bft) 100 %
23.07.2017 13:30 20,6 C 20,6 C 20,7 C 56 % 1015,4 hPa 0,0 l/m 16,2 km/h (3 Bft) SW 219 10 min 0,000 mm 756 W/m 11,5 C 17,7 C 32,2 km/h (5 Bft) 100 %
23.07.2017 13:40 21,1 C 20,6 C 21,1 C 58 % 1015,3 hPa 0,0 l/m 12,3 km/h (3 Bft) W-NW 298 10 min 0,000 mm 670 W/m 12,5 C 19,2 C 25,7 km/h (4 Bft) 100 %
23.07.2017 13:50 21,7 C 21,1 C 21,7 C 57 % 1015,2 hPa 0,0 l/m 10,5 km/h (2 Bft) W 261 10 min 0,000 mm 963 W/m 12,8 C 20,4 C 27,4 km/h (4 Bft) 100 %
23.07.2017 14:00 22,1 C 21,7 C 22,1 C 55 % 1015,3 hPa 0,0 l/m 10,3 km/h (2 Bft) W-NW 295 10 min 0,000 mm 1009 W/m 12,6 C 20,9 C 24,1 km/h (4 Bft) 100 %
23.07.2017 14:10 22,1 C 22,1 C 22,2 C 53 % 1015,3 hPa 0,0 l/m 15,1 km/h (3 Bft) NW 311 10 min 0,457 mm 436 W/m 12,1 C 19,8 C 33,8 km/h (5 Bft) 100 %
23.07.2017 14:20 21,5 C 21,5 C 22,1 C 54 % 1015,3 hPa 0,0 l/m 10,8 km/h (2 Bft) W 261 10 min 0,000 mm 417 W/m 11,8 C 20,1 C 24,1 km/h (4 Bft) 100 %
23.07.2017 14:30 20,9 C 20,9 C 21,5 C 57 % 1015,2 hPa 0,0 l/m 9,8 km/h (2 Bft) SW 236 10 min 0,000 mm 311 W/m 12,1 C 19,7 C 25,7 km/h (4 Bft) 100 %
23.07.2017 14:40 20,6 C 20,6 C 20,9 C 60 % 1015,2 hPa 0,0 l/m 4,9 km/h (1 Bft) W 267 10 min 0,000 mm 255 W/m 12,6 C 20,6 C 17,7 km/h (3 Bft) 100 %
23.07.2017 14:50 20,5 C 20,5 C 20,6 C 59 % 1015,3 hPa 0,0 l/m 7,1 km/h (2 Bft) SW 216 10 min 0,000 mm 373 W/m 12,2 C 20,2 C 19,3 km/h (3 Bft) 100 %
23.07.2017 15:00 20,6 C 20,5 C 20,6 C 58 % 1015,2 hPa 0,0 l/m 11,3 km/h (2 Bft) W-NW 286 10 min 0,000 mm 434 W/m 12,0 C 18,9 C 25,7 km/h (4 Bft) 100 %
23.07.2017 15:10 20,7 C 20,6 C 20,7 C 58 % 1015,2 hPa 0,0 l/m 10,7 km/h (2 Bft) S-SW 202 10 min 0,330 mm 429 W/m 12,1 C 19,2 C 27,4 km/h (4 Bft) 99 %
23.07.2017 15:20 20,8 C 20,7 C 20,8 C 56 % 1015,3 hPa 0,0 l/m 9,1 km/h (2 Bft) SW 234 10 min 0,000 mm 327 W/m 11,7 C 19,8 C 30,6 km/h (5 Bft) 100 %
23.07.2017 15:30 20,9 C 20,7 C 20,9 C 57 % 1015,2 hPa 0,0 l/m 9,5 km/h (2 Bft) W 273 10 min 0,000 mm 323 W/m 12,1 C 19,8 C 24,1 km/h (4 Bft) 100 %
23.07.2017 15:40 21,3 C 20,9 C 21,3 C 56 % 1015,1 hPa 0,0 l/m 9,2 km/h (2 Bft) W-SW 250 10 min 0,000 mm 366 W/m 12,2 C 20,3 C 24,1 km/h (4 Bft) 99 %
23.07.2017 15:50 21,3 C 21,2 C 21,3 C 56 % 1015,1 hPa 0,0 l/m 7,9 km/h (2 Bft) W-NW 283 10 min 0,000 mm 336 W/m 12,2 C 20,8 C 25,7 km/h (4 Bft) 100 %
23.07.2017 16:00 21,2 C 21,2 C 21,3 C 55 % 1015,0 hPa 0,0 l/m 7,2 km/h (2 Bft) NW 311 10 min 0,000 mm 332 W/m 11,8 C 20,9 C 20,9 km/h (4 Bft) 100 %
23.07.2017 16:10 21,0 C 21,0 C 21,2 C 55 % 1015,0 hPa 0,0 l/m 6,9 km/h (2 Bft) W-SW 250 10 min 0,279 mm 316 W/m 11,6 C 20,8 C 19,3 km/h (3 Bft) 99 %
23.07.2017 16:20 20,8 C 20,8 C 21,0 C 56 % 1015,0 hPa 0,0 l/m 5,7 km/h (1 Bft) NW 322 10 min 0,001 mm 345 W/m 11,7 C 20,8 C 22,5 km/h (4 Bft) 99 %
23.07.2017 16:30 20,9 C 20,8 C 20,9 C 57 % 1014,9 hPa 0,0 l/m 6,5 km/h (2 Bft) SW 221 10 min 0,000 mm 267 W/m 12,1 C 20,9 C 25,7 km/h (4 Bft) 100 %
23.07.2017 16:40 20,9 C 20,9 C 20,9 C 58 % 1014,9 hPa 0,0 l/m 4,8 km/h (1 Bft) SW 217 10 min 0,000 mm 285 W/m 12,3 C 20,9 C 22,5 km/h (4 Bft) 100 %
23.07.2017 16:50 21,2 C 20,9 C 21,2 C 53 % 1014,6 hPa 0,0 l/m 7,1 km/h (2 Bft) W-SW 246 10 min 0,000 mm 171 W/m 11,2 C 20,9 C 19,3 km/h (3 Bft) 100 %
23.07.2017 17:00 21,1 C 21,1 C 21,2 C 56 % 1014,5 hPa 0,0 l/m 9,2 km/h (2 Bft) W 273 10 min 0,000 mm 192 W/m 12,0 C 20,1 C 24,1 km/h (4 Bft) 99 %
23.07.2017 17:10 21,3 C 21,0 C 21,3 C 57 % 1014,5 hPa 0,0 l/m 6,3 km/h (2 Bft) SW 217 0 min 0,203 mm 142 W/m 12,4 C 21,3 C 20,9 km/h (4 Bft) 99 %
23.07.2017 17:20 21,3 C 21,3 C 21,4 C 55 % 1014,5 hPa 0,0 l/m 7,3 km/h (2 Bft) SW 218 0 min 0,000 mm 98 W/m 11,9 C 21,0 C 24,1 km/h (4 Bft) 100 %
23.07.2017 17:30 21,2 C 21,2 C 21,3 C 54 % 1014,4 hPa 0,0 l/m 9,1 km/h (2 Bft) W 261 0 min 0,000 mm 58 W/m 11,5 C 20,2 C 29,0 km/h (5 Bft) 100 %
23.07.2017 17:40 21,2 C 21,2 C 21,2 C 54 % 1014,3 hPa 0,0 l/m 8,2 km/h (2 Bft) W-SW 254 0 min 0,000 mm 84 W/m 11,5 C 20,5 C 20,9 km/h (4 Bft) 99 %
23.07.2017 17:50 21,6 C 21,2 C 21,6 C 53 % 1014,4 hPa 0,0 l/m 8,1 km/h (2 Bft) W-NW 286 0 min 0,000 mm 81 W/m 11,6 C 21,0 C 20,9 km/h (4 Bft) 100 %
23.07.2017 18:00 21,6 C 21,6 C 21,6 C 54 % 1014,3 hPa 0,0 l/m 7,6 km/h (2 Bft) W 276 0 min 0,127 mm 141 W/m 11,9 C 21,2 C 24,1 km/h (4 Bft) 100 %
23.07.2017 18:10 21,7 C 21,6 C 21,7 C 53 % 1014,4 hPa 0,0 l/m 11,2 km/h (2 Bft) W-NW 286 0 min 0,000 mm 72 W/m 11,7 C 20,2 C 27,4 km/h (4 Bft) 100 %
23.07.2017 18:20 21,6 C 21,6 C 21,7 C 54 % 1014,3 hPa 0,0 l/m 9,6 km/h (2 Bft) W 263 0 min 0,000 mm 53 W/m 11,9 C 20,5 C 25,7 km/h (4 Bft) 100 %
23.07.2017 18:30 21,6 C 21,6 C 21,7 C 54 % 1014,3 hPa 0,0 l/m 3,7 km/h (1 Bft) W 275 0 min 0,000 mm 54 W/m 11,9 C 21,6 C 19,3 km/h (3 Bft) 99 %
23.07.2017 18:40 21,4 C 21,4 C 21,6 C 53 % 1014,3 hPa 0,0 l/m 10,3 km/h (2 Bft) W-SW 249 0 min 0,000 mm 58 W/m 11,4 C 20,1 C 24,1 km/h (4 Bft) 100 %
23.07.2017 18:50 21,2 C 21,2 C 21,4 C 55 % 1014,2 hPa 0,0 l/m 7,4 km/h (2 Bft) S-SW 205 0 min 0,000 mm 54 W/m 11,8 C 20,8 C 25,7 km/h (4 Bft) 100 %
23.07.2017 19:00 20,9 C 20,9 C 21,2 C 56 % 1014,1 hPa 0,0 l/m 5,4 km/h (1 Bft) S-SW 200 0 min 0,102 mm 107 W/m 11,8 C 20,9 C 24,1 km/h (4 Bft) 100 %
23.07.2017 19:10 20,8 C 20,8 C 20,9 C 55 % 1014,1 hPa 0,0 l/m 5,6 km/h (1 Bft) W 263 0 min 0,000 mm 69 W/m 11,4 C 20,8 C 24,1 km/h (4 Bft) 100 %
23.07.2017 19:20 20,4 C 20,4 C 20,8 C 56 % 1014,0 hPa 0,0 l/m 8,7 km/h (2 Bft) W 271 0 min 0,000 mm 54 W/m 11,3 C 19,5 C 19,3 km/h (3 Bft) 100 %
23.07.2017 19:30 20,1 C 20,1 C 20,4 C 57 % 1014,0 hPa 0,0 l/m 4,8 km/h (1 Bft) W 265 0 min 0,000 mm 79 W/m 11,3 C 20,1 C 14,5 km/h (3 Bft) 100 %
23.07.2017 19:40 19,8 C 19,8 C 20,1 C 59 % 1014,0 hPa 0,0 l/m 5,9 km/h (2 Bft) SW 227 0 min 0,000 mm 62 W/m 11,6 C 19,8 C 16,1 km/h (3 Bft) 100 %
23.07.2017 19:50 19,7 C 19,7 C 19,8 C 59 % 1014,0 hPa 0,0 l/m 3,3 km/h (1 Bft) W 281 0 min 0,000 mm 54 W/m 11,5 C 19,7 C 9,7 km/h (2 Bft) 99 %
23.07.2017 20:00 19,4 C 19,4 C 19,7 C 61 % 1013,8 hPa 0,0 l/m 2,0 km/h (1 Bft) NW 307 0 min 0,076 mm 58 W/m 11,7 C 19,4 C 11,3 km/h (2 Bft) 100 %
23.07.2017 20:10 19,3 C 19,3 C 19,4 C 61 % 1013,7 hPa 0,0 l/m 4,7 km/h (1 Bft) W 269 0 min 0,000 mm 60 W/m 11,6 C 19,3 C 14,5 km/h (3 Bft) 100 %
23.07.2017 20:20 19,2 C 19,2 C 19,3 C 61 % 1013,9 hPa 0,0 l/m 2,1 km/h (1 Bft) W 271 0 min 0,000 mm 42 W/m 11,5 C 19,2 C 11,3 km/h (2 Bft) 100 %
23.07.2017 20:30 19,1 C 19,1 C 19,2 C 61 % 1013,9 hPa 0,0 l/m 1,6 km/h (1 Bft) W 259 0 min 0,000 mm 26 W/m 11,4 C 19,1 C 9,7 km/h (2 Bft) 100 %
23.07.2017 20:40 19,0 C 19,0 C 19,1 C 61 % 1013,8 hPa 0,0 l/m 2,1 km/h (1 Bft) W 263 0 min 0,000 mm 16 W/m 11,3 C 19,0 C 11,3 km/h (2 Bft) 100 %
23.07.2017 20:50 18,9 C 18,9 C 19,0 C 62 % 1013,7 hPa 0,0 l/m 1,7 km/h (1 Bft) W 259 0 min 0,000 mm 14 W/m 11,5 C 18,9 C 9,7 km/h (2 Bft) 100 %
23.07.2017 21:00 18,8 C 18,8 C 18,9 C 62 % 1013,8 hPa 0,0 l/m 1,1 km/h (1 Bft) W 259 0 min 0,051 mm 14 W/m 11,4 C 18,8 C 8,0 km/h (2 Bft) 99 %
23.07.2017 21:10 18,6 C 18,6 C 18,8 C 63 % 1013,9 hPa 0,0 l/m 4,8 km/h (1 Bft) W 270 0 min 0,000 mm 12 W/m 11,4 C 18,6 C 9,7 km/h (2 Bft) 98 %
23.07.2017 21:20 18,4 C 18,4 C 18,6 C 63 % 1014,0 hPa 0,0 l/m 1,6 km/h (1 Bft) W-SW 247 0 min 0,000 mm 0 W/m 11,2 C 18,4 C 8,0 km/h (2 Bft) 98 %
23.07.2017 21:30 18,3 C 18,3 C 18,4 C 64 % 1014,0 hPa 0,0 l/m 0,0 km/h (0 Bft) W-SW 247 0 min 0,000 mm 0 W/m 11,4 C 18,3 C 4,8 km/h (1 Bft) 98 %
23.07.2017 21:40 18,1 C 18,1 C 18,3 C 65 % 1014,0 hPa 0,0 l/m 0,0 km/h (0 Bft) W-SW 247 0 min 0,000 mm 0 W/m 11,4 C 18,1 C 3,2 km/h (1 Bft) 99 %
23.07.2017 21:50 17,9 C 17,9 C 18,2 C 65 % 1013,9 hPa 0,0 l/m 0,0 km/h (0 Bft) N 0 0 min 0,000 mm 0 W/m 11,2 C 17,9 C 0,0 km/h (0 Bft) 99 %
23.07.2017 22:00 17,7 C 17,7 C 17,9 C 66 % 1014,1 hPa 0,0 l/m 0,0 km/h (0 Bft) W-SW 247 0 min 0,025 mm 0 W/m 11,3 C 17,7 C 1,6 km/h (1 Bft) 99 %
23.07.2017 22:10 17,5 C 17,5 C 17,7 C 67 % 1014,1 hPa 0,0 l/m 0,0 km/h (0 Bft) N 0 0 min 0,000 mm 0 W/m 11,3 C 17,5 C 0,0 km/h (0 Bft) 100 %
23.07.2017 22:20 17,2 C 17,2 C 17,5 C 68 % 1014,0 hPa 0,0 l/m 0,0 km/h (0 Bft) N 0 0 min 0,000 mm 0 W/m 11,2 C 17,2 C 0,0 km/h (0 Bft) 91 %
23.07.2017 22:30 17,0 C 17,0 C 17,2 C 70 % 1014,0 hPa 0,0 l/m 0,0 km/h (0 Bft) N 0 0 min 0,000 mm 0 W/m 11,5 C 17,0 C 0,0 km/h (0 Bft) 100 %
23.07.2017 22:40 16,9 C 16,9 C 17,0 C 69 % 1013,9 hPa 0,0 l/m 0,0 km/h (0 Bft) N 0 0 min 0,000 mm 0 W/m 11,2 C 16,9 C 0,0 km/h (0 Bft) 100 %
23.07.2017 22:50 16,9 C 16,9 C 16,9 C 71 % 1013,9 hPa 0,0 l/m 0,0 km/h (0 Bft) N 0 0 min 0,000 mm 0 W/m 11,6 C 16,9 C 0,0 km/h (0 Bft) 99 %
23.07.2017 23:00 16,9 C 16,9 C 16,9 C 70 % 1013,8 hPa 0,0 l/m 1,6 km/h (1 Bft) W-SW 247 0 min 0,025 mm 0 W/m 11,4 C 16,9 C 6,4 km/h (2 Bft) 100 %
23.07.2017 23:10 17,0 C 16,9 C 17,0 C 69 % 1013,7 hPa 0,0 l/m 4,8 km/h (1 Bft) SO 135 0 min 0,000 mm 0 W/m 11,3 C 17,0 C 6,4 km/h (2 Bft) 100 %
23.07.2017 23:20 17,1 C 17,0 C 17,1 C 69 % 1013,7 hPa 0,0 l/m 3,2 km/h (1 Bft) SO 135 0 min 0,000 mm 0 W/m 11,4 C 17,1 C 6,4 km/h (2 Bft) 100 %
23.07.2017 23:30 17,1 C 17,1 C 17,1 C 70 % 1013,6 hPa 0,0 l/m 4,8 km/h (1 Bft) SO 135 0 min 0,000 mm 0 W/m 11,6 C 17,1 C 6,4 km/h (2 Bft) 100 %
23.07.2017 23:40 17,1 C 17,1 C 17,1 C 69 % 1013,5 hPa 0,0 l/m 3,2 km/h (1 Bft) SO 135 0 min 0,000 mm 0 W/m 11,4 C 17,1 C 6,4 km/h (2 Bft) 100 %
23.07.2017 23:50 17,1 C 17,1 C 17,1 C 70 % 1013,5 hPa 0,0 l/m 3,2 km/h (1 Bft) SO 135 0 min 0,000 mm 0 W/m 11,6 C 17,1 C 6,4 km/h (2 Bft) 100 %
_ Min-Zeit 22:40 22:40 22:50 14:10 00:00 - 00:00 - - - - - 22:40 07:50 00:00 22:20
Minimum _ 16,9 C 16,9 C 16,9 C 53 % 1011,1 hPa - 0,0 km/h (0 Bft) - - - - - 11,2 C 16,6 C 0,0 km/h (0 Bft) 91 %
_ Max-Zeit 14:10 14:10 14:10 00:00 13:00 00:00 12:30 - - 08:10 13:10 12:30 01:00 18:30 12:30 22:30
Maximum _ 22,2 C 22,1 C 22,2 C 88 % 1015,4 hPa 0,0 l/m 17,7 km/h
S-SW (3 Bft)
- - 10 min 0,508 mm 1093 W/m 17,5 C 21,6 C 41,8 km/h
S (6 Bft)
100 %
Durchschnitt _ 19,7 C 19,6 C 19,8 C 69 % 1014,0 hPa #0,0 l/m 6,5 km/h (2 Bft) SW - #9:00 h #3,581 mm 342 W/m 13,5 C 19,1 C 18,7 km/h (3 Bft) 98 %
PRIVATE WETTERSTATION BILLIGHEIM-ALLFELD - www.neckar-odenwald-wetter.de - Holger Sonntag